Date String (YYYY-MM-DD hh:mm:ss) UTC,Instrument flags,absolute air pressure of the measurement (hPa),sample flow rate (lpm),inlet stack bypass flow (lpm),air temperature of the measurement (°C),ambient temperature measured by the external sensor (°C),aerosol sample conditioner tube jacket temperature (°C),OPC LED temperature (°C),internal box temperature (°C),relative humidity of the measurement (%),span deviation,mass concentration of particles derived from Lorenz-Mie calculation of OPC scattering (μg/m³),mass concentration of particles derived from Lorenz-Mie calculation of OPC scattering (μg/m³),mass concentration of particles derived from Lorenz-Mie calculation of OPC scattering (μg/m³)
DateTimeUTC,F1_M11,P_M11,Q1_M11,Q2_M11,T1_M11,T2_M11,T3_M11,T4_M11,T5_M11,U1_M11,ZSPAN_M11,X2_M11,X0_M11,X1_M11
2023-08-14 17:00:00,SystemResetWarning,0841.5,5.00,000.00,029.0,026.7,000.0,037.5,030.6,22.1,0000.0,0003.70,0008.43,0003.32
2023-08-14 17:01:00,SystemResetWarning,0841.5,5.00,000.00,029.0,027.0,000.0,037.6,030.7,22.3,0000.0,0003.71,0008.45,0003.33
2023-08-14 17:02:00,SystemResetWarning,0841.5,5.00,000.00,029.0,027.3,000.0,037.6,030.7,22.1,0000.0,0003.70,0008.43,0003.33
2023-08-14 17:03:00,SystemResetWarning,0841.5,4.99,000.00,029.1,027.5,000.0,037.6,030.8,22.2,0000.0,0003.70,0008.45,0003.33
2023-08-14 17:04:00,SystemResetWarning,0841.4,5.00,000.00,029.1,027.7,000.0,037.6,030.8,22.0,0000.0,0003.67,0008.68,0003.33
2023-08-14 17:05:00,SystemResetWarning,0841.4,5.00,000.00,029.2,027.8,000.0,037.6,030.9,22.1,0000.0,0003.65,0009.01,0003.32
2023-08-14 17:06:00,SystemResetWarning,0841.5,5.00,000.00,029.2,028.0,000.0,037.6,030.9,21.9,0000.0,0003.63,0008.88,0003.31
2023-08-14 17:07:00,SystemResetWarning,0841.5,5.01,000.00,029.2,028.1,000.0,037.7,031.0,22.1,0000.0,0003.62,0008.43,0003.30
2023-08-14 17:08:00,SystemResetWarning,0841.5,5.00,000.00,029.3,028.1,000.0,037.7,031.0,22.1,0000.0,0003.61,0008.12,0003.30
2023-08-14 17:09:00,SystemResetWarning,0841.4,4.98,000.00,029.3,027.1,000.0,037.6,030.9,22.0,0000.0,0003.62,0008.48,0003.29
2023-08-14 17:10:00,SystemResetWarning,0841.5,5.00,000.00,029.2,025.3,000.0,037.5,030.5,22.5,0000.0,0003.60,0008.37,0003.29
2023-08-14 17:11:00,SystemResetWarning,0841.4,5.00,000.00,029.1,024.9,000.0,037.4,030.3,22.1,0000.0,0003.60,0008.35,0003.28
2023-08-14 17:12:00,SystemResetWarning,0841.3,5.01,000.00,029.0,025.2,000.0,037.4,030.2,22.2,0000.0,0003.61,0008.38,0003.29
2023-08-14 17:13:00,SystemResetWarning,0841.3,5.00,000.00,028.9,025.5,000.0,037.4,030.3,22.4,0000.0,0003.64,0008.48,0003.31
2023-08-14 17:14:00,SystemResetWarning,0841.3,5.00,000.00,028.9,026.0,000.0,037.4,030.4,22.7,0000.0,0003.66,0008.54,0003.31
2023-08-14 17:15:00,SystemResetWarning,0841.3,5.00,000.00,028.9,026.3,000.0,037.5,030.4,22.7,0000.0,0003.70,0008.35,0003.32
2023-08-14 17:16:00,SystemResetWarning,0841.3,5.00,000.00,028.9,026.7,000.0,037.5,030.5,22.9,0000.0,0003.73,0007.58,0003.33
2023-08-14 17:17:00,SystemResetWarning,0841.3,4.99,000.00,029.0,027.0,000.0,037.5,030.6,22.9,0000.0,0003.73,0007.05,0003.34
2023-08-14 17:18:00,SystemResetWarning,0841.3,4.99,000.00,029.0,027.2,000.0,037.5,030.7,22.9,0000.0,0003.74,0006.98,0003.35
2023-08-14 17:19:00,SystemResetWarning,0841.3,5.01,000.00,029.0,027.4,000.0,037.5,030.7,22.6,0000.0,0003.79,0007.17,0003.36
2023-08-14 17:20:00,SystemResetWarning,0841.3,5.01,000.00,029.1,027.6,000.0,037.5,030.8,22.8,0000.0,0003.80,0006.60,0003.37
2023-08-14 17:21:00,SystemResetWarning,0841.2,5.00,000.00,029.1,027.8,000.0,037.5,030.8,22.9,0000.0,0003.81,0006.67,0003.37
2023-08-14 17:22:00,SystemResetWarning,0841.3,5.00,000.00,029.1,027.9,000.0,037.6,030.9,22.7,0000.0,0003.82,0006.76,0003.38
2023-08-14 17:23:00,SystemResetWarning,0841.2,4.99,000.00,029.2,028.0,000.0,037.6,030.9,22.4,0000.0,0003.81,0007.04,0003.37
2023-08-14 17:24:00,SystemResetWarning,0841.2,4.98,000.00,029.2,028.1,000.0,037.6,031.0,22.3,0000.0,0003.80,0007.74,0003.36
2023-08-14 17:25:00,SystemResetWarning,0841.3,5.00,000.00,029.2,027.9,000.0,037.6,031.0,22.6,0000.0,0003.77,0008.81,0003.36
2023-08-14 17:26:00,SystemResetWarning,0841.3,5.01,000.00,029.2,026.4,000.0,037.5,030.7,22.8,0000.0,0003.72,0009.02,0003.35
2023-08-14 17:27:00,SystemResetWarning,0841.3,5.00,000.00,029.2,025.9,000.0,037.4,030.6,22.5,0000.0,0003.69,0008.94,0003.34
2023-08-14 17:28:00,SystemResetWarning,0841.2,5.02,000.00,029.1,026.0,000.0,037.4,030.4,22.5,0000.0,0003.70,0009.00,0003.35
2023-08-14 17:29:00,SystemResetWarning,0841.1,5.00,000.00,029.1,026.3,000.0,037.5,030.5,22.9,0000.0,0003.73,0009.08,0003.36
2023-08-14 17:30:00,SystemResetWarning,0841.1,4.99,000.00,029.0,026.6,000.0,037.5,030.6,23.0,0000.0,0003.70,0008.96,0003.37
2023-08-14 17:31:00,SystemResetWarning,0841.1,5.00,000.00,029.1,026.9,000.0,037.5,030.7,22.8,0000.0,0003.69,0008.92,0003.37
2023-08-14 17:32:00,SystemResetWarning,0841.1,5.01,000.00,029.1,027.2,000.0,037.6,030.7,22.9,0000.0,0003.69,0008.95,0003.38
2023-08-14 17:33:00,SystemResetWarning,0841.1,5.01,000.00,029.1,027.4,000.0,037.6,030.8,22.9,0000.0,0003.71,0009.14,0003.39
2023-08-14 17:34:00,SystemResetWarning,0841.1,4.99,000.00,029.1,027.6,000.0,037.6,030.8,23.0,0000.0,0003.72,0009.20,0003.41
2023-08-14 17:35:00,SystemResetWarning,0841.2,4.99,000.00,029.2,027.8,000.0,037.6,030.9,23.3,0000.0,0003.73,0008.49,0003.42
2023-08-14 17:36:00,SystemResetWarning,0841.2,5.00,000.00,029.2,027.9,000.0,037.6,030.9,22.6,0000.0,0003.75,0007.33,0003.43
2023-08-14 17:37:00,SystemResetWarning,0841.1,5.00,000.00,029.3,028.0,000.0,037.7,031.0,22.3,0000.0,0003.79,0006.94,0003.46
2023-08-14 17:38:00,SystemResetWarning,0841.1,4.99,000.00,029.3,027.6,000.0,037.6,030.9,22.5,0000.0,0003.81,0007.72,0003.48
2023-08-14 17:39:00,SystemResetWarning,0841.1,4.99,000.00,029.2,026.0,000.0,037.5,030.6,22.4,0000.0,0003.82,0008.21,0003.49
2023-08-14 17:40:00,SystemResetWarning,0841.1,5.01,000.00,029.2,025.7,000.0,037.4,030.5,22.6,0000.0,0003.80,0008.27,0003.49
2023-08-14 17:41:00,SystemResetWarning,0841.1,5.01,000.00,029.1,026.0,000.0,037.5,030.5,23.0,0000.0,0003.83,0008.45,0003.49
2023-08-14 17:42:00,SystemResetWarning,0841.0,4.99,000.00,029.1,026.3,000.0,037.5,030.5,23.4,0000.0,0003.85,0008.49,0003.51
2023-08-14 17:43:00,SystemResetWarning,0841.1,5.00,000.00,029.1,026.6,000.0,037.5,030.6,23.1,0000.0,0003.88,0008.56,0003.51
2023-08-14 17:44:00,SystemResetWarning,0841.1,5.00,000.00,029.1,026.9,000.0,037.6,030.7,23.0,0000.0,0003.89,0008.46,0003.51
2023-08-14 17:45:00,SystemResetWarning,0841.1,5.01,000.00,029.1,027.2,000.0,037.6,030.7,22.9,0000.0,0003.89,0008.34,0003.51
2023-08-14 17:46:00,SystemResetWarning,0841.1,5.01,000.00,029.1,027.4,000.0,037.6,030.8,22.9,0000.0,0003.92,0008.85,0003.53
2023-08-14 17:47:00,SystemResetWarning,0841.0,4.99,000.00,029.1,027.6,000.0,037.6,030.8,22.8,0000.0,0003.95,0009.22,0003.53
2023-08-14 17:48:00,SystemResetWarning,0841.0,4.99,000.00,029.2,027.8,000.0,037.6,030.9,22.7,0000.0,0003.95,0009.22,0003.54
2023-08-14 17:49:00,SystemResetWarning,0841.0,5.00,000.00,029.2,027.9,000.0,037.7,031.0,22.8,0000.0,0003.96,0008.81,0003.54
2023-08-14 17:50:00,SystemResetWarning,0841.0,5.00,000.00,029.3,027.8,000.0,037.6,031.0,22.8,0000.0,0003.96,0008.95,0003.55
2023-08-14 17:51:00,SystemResetWarning,0841.0,5.00,000.00,029.2,026.2,000.0,037.5,030.6,22.6,0000.0,0004.00,0008.91,0003.56
2023-08-14 17:52:00,SystemResetWarning,0840.9,5.00,000.00,029.1,024.8,000.0,037.4,030.3,22.9,0000.0,0004.00,0008.77,0003.57
2023-08-14 17:53:00,SystemResetWarning,0840.8,5.00,000.00,029.0,024.8,000.0,037.3,030.2,23.1,0000.0,0004.00,0008.75,0003.58
2023-08-14 17:54:00,SystemResetWarning,0840.8,5.01,000.00,028.9,025.2,000.0,037.4,030.2,23.1,0000.0,0004.00,0008.69,0003.60
2023-08-14 17:55:00,SystemResetWarning,0840.8,5.00,000.00,028.9,025.6,000.0,037.4,030.2,23.5,0000.0,0004.00,0008.87,0003.61
2023-08-14 17:56:00,SystemResetWarning,0840.8,5.00,000.00,028.9,026.0,000.0,037.4,030.3,23.8,0000.0,0004.01,0008.83,0003.62
2023-08-14 17:57:00,SystemResetWarning,0840.7,5.00,000.00,028.9,026.4,000.0,037.4,030.4,23.5,0000.0,0003.98,0009.09,0003.61
2023-08-14 17:58:00,SystemResetWarning,0840.7,5.00,000.00,028.9,026.7,000.0,037.4,030.5,23.6,0000.0,0003.95,0008.76,0003.61
2023-08-14 17:59:00,SystemResetWarning,0840.8,5.00,000.00,028.9,027.0,000.0,037.4,030.6,23.3,0000.0,0003.96,0008.78,0003.61
